{"data":{"norad_id":66546,"intl_designator":"2025-266B","name":"SHIJIAN-30B (SJ-30B)","alt_names":[],"object_type":"PAYLOAD","status":"ACTIVE","operator":null,"country":"PRC","launch_date":"2025-11-19","launch_site_code":"JSC","launch_vehicle":null,"mission":null,"orbit_class":"UNKNOWN","rcs_meters":null,"size_class":null,"mass_kg":null,"dimensions":null,"purposes":[],"wikipedia_slug":null,"has_3d_model":false,"image_url":null,"decayed_at":null,"tle_current":{"epoch":"2026-05-24T21:28:22.881792Z","epoch_age_seconds":90956,"freshness":"FRESH","line1":"1 66546U 25266B   26144.89470928  .00007562  00000+0  41163-3 0  9999","line2":"2 66546  51.7973 288.4814 0009013 172.8045 187.3062 15.15337126 28322","mean_motion":15.15337126,"eccentricity":0.0009013,"inclination_deg":51.7973,"raan_deg":288.4814,"arg_perigee_deg":172.8045,"mean_anomaly_deg":187.3062,"bstar":0.00041163,"rev_number":2832,"period_min":95.028358725766,"perigee_km":513.73801354368,"apogee_km":526.17251465895,"semimajor_km":6898.0922641013,"source":"CELESTRAK","updated_at":"2026-05-25T13:38:06.303803Z"}}}